Roseau, MN

1:36 AM CDT on October 22, 2017 (GMT -0500)
Roseau Municipal-Billberg

Weather History for KROX - November, 2012

Change the Weather History Date:

Thursday, November 29, 2012

  Actual Average Record
Temperature  
Mean Temperature 12 °F -  
Max Temperature 15 °F 24 °F 41 °F (1949)
Min Temperature 8 °F 7 °F -35 °F (1985)
Degree Days  
Heating Degree Days 54    
Moisture  
Dew Point 7 °F    
Average Humidity 75    
Maximum Humidity 85    
Minimum Humidity 68    
Precipitation  
Precipitation 0.00 in - - ()
Sea Level Pressure  
Sea Level Pressure 30.24 in    
Wind  
Wind Speed 11 mph (ENE)    
Max Wind Speed 18 mph    
Max Gust Speed 21 mph    
Visibility 10 miles    
Events Snow    
Averages and records for this station are not official NWS values.
T = Trace of Precipitation, MM = Missing Value Source: NWS Daily Summary

Daily Weather History Graph

Daily Weather History Graph

Search for Another Location

Airport or City:

Trip Planner

Search our weather history database for the weather conditions in past years. The results will help you decide how hot, cold, wet, or windy it might be!

Date:

Astronomy

Nov. 29, 2012 Rise Set
Actual Time 7:53 AM CST 4:29 PM CST
Civil Twilight 7:16 AM CST 5:05 PM CST
Nautical Twilight 6:37 AM CST 5:45 PM CST
Astronomical Twilight 5:59 AM CST 6:23 PM CST
Moon 5:32 PM CST (11/29) 8:41 AM CST (11/29)
Length of Visible Light 9h 48m
Length of Day
8h 36m
Full, 99% of the Moon is Illuminated
Nov 29
Full
Dec 6
Last Quarter
Dec 13
New
Dec 19
First Quarter
Dec 28
Full

Hourly Weather History & Observations

Time (CST) Temp. Windchill Dew Point Humidity Pressure Visibility Wind Dir Wind Speed Gust Speed Precip Events Conditions
12:14 AM 10.4 °F -1.5 °F 3.2 °F 73% 30.20 in 10.0 mi North 8.1 mph - N/A   Clear
12:35 AM 8.6 °F 0.1 °F 3.2 °F 79% 30.21 in 10.0 mi North 4.6 mph - N/A   Scattered Clouds
12:54 AM 8.6 °F -3.7 °F 3.2 °F 79% 30.20 in 10.0 mi NNE 8.1 mph - N/A   Scattered Clouds
1:14 AM 8.6 °F -5.5 °F 3.2 °F 79% 30.20 in 10.0 mi North 10.4 mph - N/A   Mostly Cloudy
1:35 AM 8.6 °F -7.0 °F 3.2 °F 79% 30.20 in 10.0 mi NNE 12.7 mph - N/A   Mostly Cloudy
1:54 AM 8.6 °F -6.3 °F 1.4 °F 73% 30.20 in 10.0 mi NNE 11.5 mph - N/A   Overcast
2:14 AM 8.6 °F -4.7 °F 1.4 °F 73% 30.21 in 10.0 mi NNE 9.2 mph - N/A   Mostly Cloudy
2:35 AM 8.6 °F -3.7 °F 3.2 °F 79% 30.21 in 10.0 mi NNE 8.1 mph - N/A   Mostly Cloudy
2:54 AM 8.6 °F -3.7 °F 3.2 °F 79% 30.22 in 10.0 mi NNE 8.1 mph - N/A   Overcast
3:14 AM 8.6 °F -3.7 °F 3.2 °F 79% 30.22 in 10.0 mi NNE 8.1 mph - N/A   Overcast
3:35 AM 8.6 °F -1.3 °F 3.2 °F 79% 30.20 in 10.0 mi NNE 5.8 mph - N/A   Overcast
4:14 AM 8.6 °F -4.7 °F 3.2 °F 79% 30.22 in 10.0 mi NNE 9.2 mph - N/A   Mostly Cloudy
4:35 AM 10.4 °F -2.4 °F 3.2 °F 73% 30.23 in 10.0 mi NNE 9.2 mph - N/A   Mostly Cloudy
4:54 AM 10.4 °F -4.1 °F 3.2 °F 73% 30.22 in 10.0 mi NNE 11.5 mph - N/A   Mostly Cloudy
5:14 AM 10.4 °F -3.3 °F 3.2 °F 73% 30.23 in 10.0 mi NNE 10.4 mph - N/A   Overcast
5:34 AM 10.4 °F -2.4 °F 3.2 °F 73% 30.23 in 10.0 mi NNE 9.2 mph - N/A   Overcast
5:54 AM 10.4 °F -3.3 °F 3.2 °F 73% 30.21 in 10.0 mi NE 10.4 mph - N/A   Overcast
6:15 AM 10.4 °F -4.8 °F 3.2 °F 73% 30.23 in 10.0 mi NNE 12.7 mph - N/A   Mostly Cloudy
6:34 AM 10.4 °F -4.1 °F 3.2 °F 73% 30.23 in 10.0 mi NE 11.5 mph - N/A   Overcast
6:54 AM 10.4 °F -3.3 °F 3.2 °F 73% 30.22 in 10.0 mi NE 10.4 mph - N/A   Overcast
7:15 AM 10.4 °F -4.1 °F 3.2 °F 73% 30.22 in 10.0 mi NE 11.5 mph - N/A   Overcast
7:34 AM 10.4 °F -4.1 °F 5.0 °F 79% 30.23 in 10.0 mi NE 11.5 mph - N/A   Mostly Cloudy
7:54 AM 10.4 °F -2.4 °F 5.0 °F 79% 30.24 in 10.0 mi NNE 9.2 mph - N/A   Mostly Cloudy
8:15 AM 10.4 °F -3.3 °F 5.0 °F 79% 30.24 in 10.0 mi NE 10.4 mph - N/A   Mostly Cloudy
8:34 AM 10.4 °F -4.8 °F 6.8 °F 85% 30.24 in 10.0 mi NE 12.7 mph - N/A   Mostly Cloudy
8:54 AM 12.2 °F -1.8 °F 6.8 °F 79% 30.26 in 10.0 mi NE 11.5 mph - N/A   Mostly Cloudy
9:15 AM 12.2 °F -1.8 °F 6.8 °F 79% 30.26 in 10.0 mi NE 11.5 mph - N/A   Scattered Clouds
9:34 AM 12.2 °F -2.5 °F 6.8 °F 79% 30.26 in 10.0 mi NE 12.7 mph - N/A   Scattered Clouds
9:54 AM 12.2 °F -3.1 °F 6.8 °F 79% 30.26 in 10.0 mi NE 13.8 mph - N/A   Mostly Cloudy
10:14 AM 14.0 °F -1.4 °F 8.6 °F 79% 30.27 in 10.0 mi ENE 15.0 mph - N/A   Mostly Cloudy
10:34 AM 14.0 °F -1.4 °F 8.6 °F 79% 30.26 in 10.0 mi ENE 15.0 mph - N/A   Mostly Cloudy
10:54 AM 15.8 °F 1.4 °F 8.6 °F 73% 30.28 in 10.0 mi ENE 13.8 mph - N/A Snow Light Snow
11:14 AM 15.8 °F 1.4 °F 8.6 °F 73% 30.27 in 10.0 mi East 13.8 mph - N/A   Mostly Cloudy
11:34 AM 15.8 °F 0.9 °F 8.6 °F 73% 30.27 in 10.0 mi East 15.0 mph - N/A   Scattered Clouds
11:54 AM 15.8 °F 1.4 °F 8.6 °F 73% 30.26 in 10.0 mi East 13.8 mph - N/A   Scattered Clouds
12:14 PM 15.8 °F -0.2 °F 8.6 °F 73% 30.26 in 10.0 mi ENE 17.3 mph - N/A   Scattered Clouds
12:34 PM 15.8 °F -0.6 °F 8.6 °F 73% 30.24 in 10.0 mi ENE 18.4 mph - N/A   Scattered Clouds
12:54 PM 15.8 °F -0.6 °F 8.6 °F 73% 30.24 in 10.0 mi ENE 18.4 mph - N/A   Scattered Clouds
1:15 PM 15.8 °F 0.9 °F 8.6 °F 73% 30.24 in 10.0 mi East 15.0 mph - N/A   Scattered Clouds
1:34 PM 15.8 °F -0.2 °F 8.6 °F 73% 30.23 in 10.0 mi ENE 17.3 mph - N/A   Scattered Clouds
1:54 PM 15.8 °F 0.3 °F 8.6 °F 73% 30.24 in 10.0 mi ENE 16.1 mph - N/A   Scattered Clouds
2:14 PM 15.8 °F 1.4 °F 8.6 °F 73% 30.24 in 10.0 mi ENE 13.8 mph - N/A   Scattered Clouds
2:34 PM 15.8 °F 0.9 °F 8.6 °F 73% 30.24 in 10.0 mi ENE 15.0 mph - N/A   Scattered Clouds
2:54 PM 15.8 °F 1.4 °F 8.6 °F 73% 30.24 in 10.0 mi ENE 13.8 mph - N/A   Scattered Clouds
3:15 PM 15.8 °F 1.4 °F 8.6 °F 73% 30.23 in 10.0 mi ENE 13.8 mph - N/A   Scattered Clouds
3:34 PM 15.8 °F 0.9 °F 8.6 °F 73% 30.23 in 10.0 mi ENE 15.0 mph - N/A   Scattered Clouds
3:54 PM 15.8 °F 0.9 °F 8.6 °F 73% 30.24 in 10.0 mi ENE 15.0 mph - N/A   Clear
4:15 PM 15.8 °F 1.4 °F 8.6 °F 73% 30.24 in 10.0 mi ENE 13.8 mph - N/A   Clear
4:34 PM 15.8 °F 0.9 °F 8.6 °F 73% 30.24 in 10.0 mi ENE 15.0 mph - N/A   Scattered Clouds
4:54 PM 15.8 °F 2.1 °F 8.6 °F 73% 30.24 in 10.0 mi ENE 12.7 mph - N/A   Mostly Cloudy
5:15 PM 15.8 °F 0.9 °F 8.6 °F 73% 30.24 in 10.0 mi ENE 15.0 mph - N/A   Mostly Cloudy
5:34 PM 15.8 °F 0.9 °F 8.6 °F 73% 30.23 in 10.0 mi ENE 15.0 mph - N/A   Mostly Cloudy
5:55 PM 15.8 °F -0.2 °F 8.6 °F 73% 30.23 in 10.0 mi ENE 17.3 mph - N/A   Scattered Clouds
6:14 PM 15.8 °F 0.9 °F 8.6 °F 73% 30.23 in 10.0 mi ENE 15.0 mph - N/A   Clear
6:34 PM 15.8 °F 0.9 °F 8.6 °F 73% 30.24 in 10.0 mi ENE 15.0 mph - N/A   Clear
6:54 PM 15.8 °F 0.3 °F 8.6 °F 73% 30.24 in 10.0 mi ENE 16.1 mph 19.6 mph N/A   Clear
7:14 PM 15.8 °F 1.4 °F 8.6 °F 73% 30.23 in 10.0 mi East 13.8 mph - N/A   Clear
7:35 PM 15.8 °F -0.2 °F 8.6 °F 73% 30.23 in 10.0 mi East 17.3 mph - N/A   Clear
7:54 PM 15.8 °F 1.4 °F 8.6 °F 73% 30.23 in 10.0 mi East 13.8 mph - N/A   Clear
8:14 PM 15.8 °F 0.9 °F 8.6 °F 73% 30.24 in 10.0 mi East 15.0 mph - N/A   Scattered Clouds
8:34 PM 15.8 °F 0.3 °F 8.6 °F 73% 30.24 in 10.0 mi East 16.1 mph 20.7 mph N/A   Scattered Clouds
8:54 PM 15.8 °F 0.3 °F 8.6 °F 73% 30.24 in 10.0 mi East 16.1 mph - N/A   Clear
9:15 PM 15.8 °F 2.1 °F 8.6 °F 73% 30.25 in 10.0 mi East 12.7 mph - N/A   Clear
9:34 PM 15.8 °F 0.9 °F 8.6 °F 73% 30.25 in 10.0 mi East 15.0 mph - N/A   Scattered Clouds
9:54 PM 15.8 °F 0.3 °F 6.8 °F 68% 30.25 in 10.0 mi East 16.1 mph - N/A   Scattered Clouds
10:15 PM 15.8 °F 0.3 °F 6.8 °F 68% 30.25 in 10.0 mi East 16.1 mph - N/A   Scattered Clouds
10:34 PM 15.8 °F 1.4 °F 8.6 °F 73% 30.25 in 10.0 mi East 13.8 mph - N/A   Scattered Clouds
10:54 PM 15.8 °F 0.3 °F 8.6 °F 73% 30.24 in 3.0 mi East 16.1 mph - N/A Snow Light Snow
11:15 PM 15.8 °F 1.4 °F 8.6 °F 73% 30.24 in 3.0 mi East 13.8 mph - N/A Snow Light Snow
11:34 PM 15.8 °F 0.3 °F 8.6 °F 73% 30.24 in 3.0 mi East 16.1 mph - N/A Snow Light Snow
11:54 PM 15.8 °F 1.4 °F 8.6 °F 73% 30.24 in 7.0 mi East 13.8 mph - N/A Snow Light Snow